Wind_Speed
19 17 14 14 16 20 23 28 33 34 35 35 34 34 32 29 27 26 25 22 20 21 24 30 34 38 39 39 38 38 38 38 37 35 34 33 32 33 33 33 34 35 37 40
15 12 11 11 13 17 21 27 31 32 31 32 31 30 28 24 21 17 14 12 12 15 21 26 30 33 35 35 34 33 33 32 30 29 28 28 29 30 31 32 34 36 39 42
12 10 8 8 11 16 21 26 29 30 29 29 28 27 23 17 12 6 4 4 9 14 19 23 27 30 31 30 29 28 26 25 25 25 25 27 29 30 31 33 36 39 41 42
9 8 7 7 10 16 21 24 28 27 26 26 27 25 20 14 9 5 6 9 13 17 20 23 25 26 26 25 24 23 22 22 24 26 28 28 28 30 32 35 37 39 40 40
8 6 6 6 10 14 18 22 25 26 25 24 24 23 21 17 15 14 15 17 19 20 21 22 22 22 21 21 20 19 20 22 25 26 26 28 31 33 34 36 37 37 38 41
9 7 7 7 10 13 17 20 23 23 23 22 22 22 20 19 18 18 19 20 20 20 20 20 19 19 19 18 19 20 22 23 24 26 28 29 30 31 32 33 35 37 41 44
10 9 9 9 11 13 15 17 19 21 21 20 20 19 18 17 16 17 17 18 18 19 18 18 17 17 18 20 21 23 24 24 24 24 24 25 27 28 31 34 36 39 42 43
12 11 11 11 12 13 14 15 16 17 18 18 17 16 16 14 13 12 13 13 14 15 15 15 16 15 16 18 18 18 18 18 18 19 21 23 26 29 32 35 38 39 41 43
15 14 13 13 13 13 14 14 14 14 14 14 14 13 12 12 11 9 8 8 8 10 11 12 12 12 12 13 13 13 13 15 17 19 22 25 28 31 34 36 38 40 42 43
17 16 15 14 14 14 14 13 13 12 12 12 11 10 9 9 8 8 8 8 7 7 6 6 6 5 5 6 7 10 13 16 18 21 24 27 30 32 34 36 38 40 42 44
19 18 17 16 15 14 13 12 11 10 10 10 10 8 6 5 5 6 6 7 7 8 7 5 3 1 4 6 9 12 14 17 20 23 26 29 31 33 36 38 39 41 42 45
20 19 17 16 15 14 12 11 9 8 9 10 10 8 5 3 2 2 3 3 4 3 2 0 2 4 6 9 11 14 17 20 23 26 28 30 33 35 37 38 40 42 44 48
20 18 17 15 14 14 12 10 8 7 8 9 10 8 5 4 2 2 2 2 2 2 2 3 5 7 9 12 15 18 20 23 25 27 30 32 34 35 37 39 41 44 48 52
18 17 16 15 14 13 12 10 9 7 7 9 10 8 6 4 4 3 4 4 4 3 4 6 8 11 14 16 19 21 23 25 27 29 31 33 34 36 38 41 45 49 53 56
15 16 16 16 15 15 14 12 10 9 8 9 9 8 6 4 4 4 4 4 4 6 8 10 13 15 17 19 21 23 25 27 29 30 32 33 35 38 42 46 50 54 58 62
14 15 16 17 16 16 15 14 13 12 11 11 11 9 7 6 5 5 5 5 7 10 12 14 16 18 19 21 23 25 27 28 30 31 33 35 38 42 46 50 55 59 63 67
14 15 16 17 17 17 16 16 15 14 14 13 11 9 9 9 8 8 8 9 11 13 15 16 18 19 21 23 24 26 28 29 30 32 35 38 42 47 51 55 60 64 69 73
14 15 16 17 18 18 18 18 17 16 14 13 11 11 11 11 11 11 11 13 14 15 17 18 20 21 23 24 26 27 28 29 31 34 38 42 47 51 56 61 65 71 76 81
15 15 15 17 18 19 19 19 18 17 15 14 13 13 13 12 12 13 14 15 16 17 18 20 21 22 24 25 26 26 28 30 33 37 41 46 51 56 61 67 72 78 82 81
13 12 12 13 15 17 18 18 18 17 16 14 14 13 13 13 13 14 15 16 17 19 20 21 22 23 25 25 25 27 29 32 35 40 45 50 55 61 67 72 78 81 77 68
13 12 11 11 13 15 17 18 18 18 17 15 15 14 14 14 15 16 18 19 20 21 21 22 23 24 25 25 26 27 30 34 38 44 49 54 60 66 71 76 77 72 61 46
15 15 13 13 14 15 17 17 18 17 17 16 15 15 15 16 17 19 20 20 21 21 22 22 24 24 24 25 26 29 32 36 41 46 52 58 63 68 72 72 67 55 40 25
16 17 17 17 17 17 18 19 19 18 18 18 17 17 18 19 19 20 21 21 22 22 22 23 24 24 24 25 27 30 34 38 43 49 55 60 64 66 66 60 49 36 22 13
15 17 20 21 21 21 21 21 21 21 21 20 20 20 20 21 21 21 22 22 22 22 23 24 23 23 24 25 28 31 35 40 46 51 57 60 61 60 54 44 33 23 15 11
17 17 18 21 23 25 26 25 25 24 24 23 23 23 23 22 22 22 22 22 22 22 23 23 22 22 23 25 28 32 37 42 48 53 56 57 55 50 42 32 23 17 12 10
22 20 20 20 21 23 25 26 27 27 26 25 24 24 23 23 23 22 22 22 22 23 23 22 22 23 24 26 30 34 38 44 50 53 55 53 47 40 31 24 18 14 11 8
26 25 24 24 23 23 24 24 24 25 25 24 23 23 23 23 23 23 23 23 23 23 22 22 22 22 24 27 31 35 40 45 50 52 51 47 39 31 23 18 15 13 11 10
Wind_Direction
275 277 286 303 319 328 331 333 333 334 331 330 324 319 313 304 294 287 280 274 262 243 229 212 200 195 195 198 204 210 217 224 230 236 243 249 255 260 266 271 276 281 285 287
267 273 290 314 331 341 346 345 344 341 340 337 335 331 325 318 309 296 281 268 244 222 209 195 190 188 190 195 201 209 217 224 231 237 244 249 254 260 268 274 279 282 284 286
262 275 296 324 344 355 357 355 353 352 350 350 350 346 343 339 332 311 270 214 191 186 183 180 179 182 186 192 200 208 216 224 230 236 240 246 253 265 272 277 279 280 284 288
254 275 303 330 350 356 358 358 358 357 357 1 3 5 8 13 27 68 115 139 149 155 159 165 171 176 182 190 197 205 215 221 227 235 238 246 259 268 272 275 279 283 287 290
247 267 294 326 350 357 1 2 3 4 5 10 14 20 29 42 63 87 107 121 131 139 148 156 162 169 177 185 193 204 215 223 231 235 248 258 263 269 275 280 284 286 289 292
246 260 282 320 340 350 356 1 6 10 12 17 22 27 36 50 69 87 103 116 125 133 139 145 152 160 170 182 193 206 218 227 236 246 254 262 271 278 282 285 287 290 291 293
249 263 282 305 326 342 351 358 2 9 12 16 20 27 34 46 66 83 99 113 124 131 137 145 154 167 180 193 203 214 225 236 246 257 268 275 280 283 285 288 290 292 293 296
252 267 281 299 316 332 344 351 357 4 9 13 19 25 29 39 57 76 95 109 126 139 151 163 174 188 200 210 220 231 242 256 267 273 277 280 283 286 289 291 293 295 297 300
255 267 282 295 307 320 332 342 349 357 4 6 12 19 27 37 50 68 88 106 131 151 166 179 189 202 218 231 242 252 262 270 276 279 282 285 288 291 293 295 297 299 301 303
258 268 280 290 298 308 319 330 339 349 356 358 1 10 23 37 50 64 85 97 106 129 154 170 182 200 222 241 256 266 273 278 282 285 289 291 294 295 297 299 301 302 303 304
259 266 274 282 289 296 306 317 327 339 348 350 351 356 5 23 48 66 83 95 95 96 101 109 126 214 267 275 279 281 283 287 290 292 294 296 298 300 301 302 303 304 305 307
258 262 267 273 277 283 291 300 312 327 340 344 343 338 333 344 18 87 99 109 120 120 125 199 274 281 286 287 288 289 291 294 296 298 300 301 303 303 304 305 306 307 308 309
252 254 258 262 265 267 271 278 289 307 330 341 340 333 318 302 280 216 203 204 218 229 251 274 284 290 293 293 294 296 298 299 300 302 303 304 305 306 306 307 308 309 310 310
247 245 247 251 252 252 252 256 264 282 309 326 332 325 310 294 271 251 238 233 238 253 276 290 295 297 297 298 298 300 301 302 304 305 306 307 308 308 309 310 311 311 312 311
240 237 238 241 242 242 241 244 252 267 285 305 315 311 293 273 255 234 226 231 257 284 296 300 301 301 301 302 303 304 305 306 307 308 309 310 311 312 313 313 313 313 313 312
238 236 236 237 238 237 237 241 250 262 274 285 293 289 272 253 242 237 247 267 289 298 301 301 301 302 303 304 305 307 308 309 310 311 312 313 315 316 316 316 315 314 313 312
242 240 238 237 236 235 235 242 251 260 267 273 274 263 254 245 244 252 266 280 291 297 298 299 301 303 304 306 308 309 311 312 313 314 316 317 319 319 318 317 316 315 314 313
246 244 242 241 239 238 237 242 250 257 263 264 259 249 246 244 248 259 273 284 290 295 298 300 302 304 305 307 309 311 313 314 317 319 321 322 321 320 319 318 317 315 314 313
245 245 244 240 237 236 236 239 245 249 253 253 250 245 246 251 258 269 279 285 290 295 299 302 303 305 307 309 311 313 316 319 322 324 325 324 323 322 321 319 318 316 315 315
245 241 238 235 232 232 232 234 238 242 244 245 247 248 251 258 267 276 283 288 293 297 300 302 304 306 309 311 314 317 320 324 326 327 327 326 325 324 323 321 319 318 318 319
244 243 239 232 228 226 226 229 233 235 237 241 246 250 257 265 273 280 286 289 294 298 301 304 306 309 311 313 316 320 323 327 328 329 329 328 328 327 325 323 322 322 323 325
243 245 243 237 228 224 225 227 230 232 235 241 247 255 263 271 277 282 287 291 295 299 302 305 308 310 312 315 318 322 326 329 330 331 331 331 331 329 327 327 328 329 333 341
245 246 247 245 240 236 233 233 235 237 242 248 255 262 269 274 278 282 287 291 295 299 302 305 308 310 313 317 321 326 329 331 332 333 334 334 333 332 332 333 337 343 355 20
252 248 247 247 246 245 243 242 243 246 251 257 263 268 271 274 278 282 286 290 295 298 302 305 307 310 314 319 324 329 332 334 335 336 337 337 336 336 338 342 350 4 24 53
262 258 254 250 248 247 247 248 251 255 259 263 267 268 270 273 277 281 286 290 294 297 300 302 304 309 315 321 327 331 333 336 338 339 339 339 338 340 343 350 1 17 35 54
264 262 261 258 255 252 250 250 252 255 257 261 263 264 267 271 275 280 285 289 293 295 296 298 302 309 316 323 328 332 335 337 339 340 340 340 340 342 347 356 7 17 25 30
262 262 262 262 260 258 256 253 252 251 252 253 254 258 263 269 274 280 284 288 291 292 294 296 302 309 318 324 329 332 336 338 340 340 340 340 340 343 350 358 5 10 13 13
Height
5625 5625 5624 5623 5621 5618 5613 5608 5602 5595 5586 5578 5568 5559 5552 5546 5542 5539 5538 5537 5538 5541 5545 5551 5561 5572 5585 5596 5606 5615 5624 5631 5638 5645 5649 5653 5655 5657 5657 5658 5658 5657 5655 5653
5622 5622 5621 5620 5618 5615 5611 5605 5598 5591 5583 5574 5564 5555 5548 5541 5537 5535 5534 5534 5536 5539 5544 5552 5562 5573 5583 5594 5603 5612 5621 5628 5635 5640 5643 5646 5648 5650 5650 5650 5650 5648 5646 5643
5619 5619 5619 5618 5616 5612 5608 5602 5596 5589 5583 5573 5564 5555 5547 5541 5537 5534 5534 5535 5537 5542 5548 5557 5566 5575 5585 5594 5603 5612 5619 5625 5630 5634 5636 5640 5642 5643 5644 5643 5642 5640 5637 5634
5617 5618 5617 5618 5613 5610 5606 5601 5596 5589 5582 5574 5566 5558 5551 5544 5540 5538 5538 5540 5543 5548 5555 5563 5571 5579 5587 5596 5604 5611 5616 5621 5625 5628 5632 5635 5636 5637 5636 5635 5633 5630 5627 5624
5615 5615 5615 5614 5611 5608 5605 5602 5597 5590 5584 5578 5571 5565 5558 5552 5547 5545 5546 5548 5551 5556 5562 5569 5576 5583 5590 5597 5603 5609 5614 5617 5622 5625 5628 5630 5630 5630 5628 5626 5624 5621 5618 5614
5613 5613 5613 5613 5610 5607 5606 5601 5598 5592 5587 5582 5577 5572 5567 5562 5558 5556 5556 5557 5560 5565 5570 5575 5581 5587 5592 5598 5603 5608 5612 5616 5619 5621 5622 5623 5622 5622 5620 5618 5615 5612 5608 5604
5610 5610 5611 5611 5609 5607 5606 5603 5598 5594 5590 5586 5582 5578 5575 5570 5568 5566 5566 5567 5569 5572 5576 5580 5585 5589 5594 5598 5602 5606 5610 5612 5614 5615 5616 5616 5615 5614 5612 5610 5607 5603 5599 5594
5608 5609 5611 5609 5607 5606 5605 5601 5598 5595 5593 5589 5586 5583 5580 5577 5576 5575 5575 5575 5577 5579 5582 5585 5588 5592 5595 5598 5601 5604 5607 5608 5610 5610 5611 5610 5609 5608 5605 5602 5598 5593 5588 5582
5607 5608 5607 5606 5605 5605 5603 5601 5598 5596 5594 5592 5590 5587 5585 5583 5582 5581 5581 5582 5583 5584 5587 5589 5592 5595 5598 5600 5602 5603 5605 5606 5606 5607 5606 5605 5603 5600 5597 5593 5588 5583 5577 5571
5602 5603 5604 5604 5603 5603 5602 5600 5598 5596 5595 5593 5592 5590 5588 5587 5586 5586 5585 5586 5587 5588 5590 5592 5594 5596 5598 5600 5601 5602 5603 5603 5603 5602 5600 5598 5595 5592 5588 5583 5578 5573 5567 5560
5598 5600 5600 5601 5601 5601 5600 5598 5597 5596 5595 5594 5592 5591 5590 5590 5589 5589 5589 5589 5590 5591 5593 5594 5596 5597 5598 5599 5600 5600 5600 5599 5598 5596 5593 5590 5587 5583 5578 5573 5568 5562 5556 5549
5594 5595 5597 5598 5598 5598 5598 5597 5596 5595 5594 5593 5592 5591 5591 5591 5591 5591 5591 5591 5592 5593 5594 5595 5596 5597 5597 5598 5597 5597 5596 5594 5592 5589 5586 5582 5578 5574 5569 5564 5558 5551 5545 5538
5589 5590 5592 5593 5594 5595 5595 5595 5595 5594 5593 5592 5591 5591 5591 5591 5591 5591 5592 5592 5593 5594 5594 5595 5595 5595 5595 5594 5593 5592 5590 5587 5585 5581 5578 5574 5570 5565 5560 5554 5547 5541 5533 5525
5583 5585 5587 5589 5590 5591 5592 5592 5592 5592 5592 5591 5591 5590 5590 5590 5590 5591 5591 5592 5592 5593 5593 5593 5593 5592 5591 5590 5588 5586 5583 5581 5578 5574 5571 5566 5561 5556 5550 5544 5537 5529 5520 5512
5579 5580 5583 5584 5586 5587 5588 5589 5590 5590 5590 5590 5589 5589 5589 5589 5589 5589 5590 5590 5591 5591 5590 5590 5589 5588 5587 5585 5583 5580 5578 5574 5571 5567 5562 5558 5552 5546 5540 5533 5525 5516 5507 5497
5574 5576 5578 5580 5581 5583 5584 5586 5587 5587 5587 5587 5587 5587 5587 5587 5587 5588 5588 5588 5589 5588 5587 5586 5585 5584 5582 5580 5577 5574 5571 5568 5563 5559 5554 5549 5543 5537 5530 5522 5513 5503 5493 5482
5569 5571 5573 5575 5576 5578 5580 5582 5583 5584 5584 5584 5584 5584 5585 5585 5585 5586 5586 5586 5586 5585 5584 5582 5581 5579 5576 5574 5571 5568 5564 5560 5556 5551 5546 5541 5534 5527 5519 5510 5500 5488 5476 5464
5565 5566 5568 5570 5571 5573 5575 5577 5579 5580 5580 5580 5581 5581 5582 5582 5583 5583 5583 5582 5582 5581 5579 5578 5576 5573 5571 5568 5565 5561 5557 5553 5549 5544 5538 5532 5525 5516 5507 5496 5485 5472 5458 5443
5560 5561 5563 5564 5566 5568 5570 5572 5574 5575 5576 5576 5577 5578 5578 5579 5579 5579 5579 5578 5578 5576 5575 5573 5571 5568 5565 5562 5558 5555 5551 5547 5542 5536 5530 5523 5515 5505 5494 5481 5467 5452 5437 5423
5556 5557 5558 5559 5561 5563 5565 5567 5569 5570 5571 5572 5573 5574 5574 5575 5575 5575 5575 5574 5573 5572 5570 5568 5565 5562 5559 5556 5552 5548 5544 5540 5535 5529 5522 5514 5504 5492 5479 5465 5449 5432 5417 5403
5553 5554 5555 5555 5557 5558 5560 5562 5564 5566 5567 5568 5569 5570 5571 5571 5571 5571 5570 5569 5568 5566 5564 5562 5559 5556 5553 5550 5546 5542 5538 5533 5528 5521 5513 5503 5492 5478 5464 5447 5430 5414 5401 5390
5549 5550 5551 5552 5553 5555 5556 5558 5560 5561 5563 5564 5565 5566 5566 5567 5567 5566 5565 5564 5562 5561 5558 5556 5553 5550 5547 5544 5541 5537 5532 5527 5520 5512 5503 5492 5479 5465 5449 5432 5416 5402 5392 5384
5545 5546 5547 5548 5549 5551 5552 5554 5555 5557 5558 5559 5560 5561 5561 5561 5561 5561 5560 5558 5556 5555 5553 5550 5547 5545 5542 5539 5535 5530 5525 5519 5512 5503 5493 5481 5468 5453 5437 5422 5408 5398 5391 5387
5540 5541 5542 5544 5545 5546 5548 5549 5550 5552 5553 5554 5555 5555 5556 5555 5555 5554 5553 5552 5550 5549 5546 5544 5542 5539 5536 5532 5528 5524 5518 5511 5503 5494 5483 5471 5458 5444 5430 5418 5408 5401 5396 5394
5535 5536 5537 5538 5539 5541 5542 5543 5545 5546 5547 5548 5548 5549 5549 5549 5549 5548 5547 5545 5544 5542 5540 5538 5536 5533 5530 5526 5522 5517 5511 5503 5495 5485 5474 5463 5450 5438 5427 5418 5411 5407 5403 5401
5529 5530 5531 5532 5533 5534 5535 5536 5537 5539 5540 5541 5541 5542 5542 5542 5542 5541 5540 5539 5537 5536 5534 5532 5530 5527 5524 5520 5515 5510 5503 5496 5487 5477 5467 5456 5445 5435 5427 5420 5415 5411 5408 5406
5522 5523 5524 5525 5525 5527 5528 5529 5530 5530 5531 5533 5533 5534 5535 5535 5534 5534 5533 5532 5531 5529 5527 5526 5523 5521 5517 5513 5508 5503 5496 5488 5480 5470 5460 5450 5441 5433 5427 5422 5418 5415 5412 5409